| time (UTC) | temp F | wind direction | speed MPH | gust MPH | rain 1hr in | rain 24hr in | rain mn in | humidity % | barometer mb |
| 20260508104829 | 32 | 35 | 0.0 | 0.0 | 0.00 | 0.00 | 0.00 | 97 | 1014.5 |
| 20260508104326 | 32 | 35 | 0.0 | 0.0 | 0.00 | 0.00 | 0.00 | 97 | 1014.3 |
| 20260508103823 | 32 | 35 | 0.0 | 0.0 | 0.00 | 0.00 | 0.00 | 97 | 1014.5 |
| 20260508103320 | 32 | 35 | 0.0 | 0.0 | 0.00 | 0.00 | 0.00 | 97 | 1014.5 |
| 20260508102818 | 32 | 35 | 0.0 | 0.0 | 0.00 | 0.00 | 0.00 | 97 | 1014.4 |
| 20260508102315 | 32 | 35 | 0.0 | 0.0 | 0.00 | 0.00 | 0.00 | 96 | 1014.5 |
| 20260508101812 | 32 | 35 | 0.0 | 0.0 | 0.00 | 0.00 | 0.00 | 97 | 1014.4 |
| 20260508101310 | 32 | 35 | 0.0 | 0.0 | 0.00 | 0.00 | 0.00 | 97 | 1014.5 |
| 20260508100807 | 32 | 35 | 0.0 | 0.0 | 0.00 | 0.00 | 0.00 | 96 | 1014.6 |
| 20260508100306 | 33 | 35 | 0.0 | 0.0 | 0.00 | 0.00 | 0.00 | 96 | 1014.5 |
| 20260508095801 | 32 | 35 | 0.0 | 0.0 | 0.00 | 0.00 | 0.00 | 96 | 1014.5 |
| 20260508095259 | 32 | 35 | 0.0 | 0.0 | 0.00 | 0.00 | 0.00 | 96 | 1014.5 |
| 20260508094755 | 33 | 35 | 0.0 | 0.0 | 0.00 | 0.00 | 0.00 | 96 | 1014.5 |
| 20260508094253 | 33 | 35 | 0.0 | 0.0 | 0.00 | 0.00 | 0.00 | 96 | 1014.6 |
| 20260508093750 | 33 | 35 | 0.0 | 0.0 | 0.00 | 0.00 | 0.00 | 96 | 1014.6 |
| 20260508093247 | 33 | 35 | 0.0 | 0.0 | 0.00 | 0.00 | 0.00 | 96 | 1014.6 |
| 20260508092744 | 33 | 35 | 0.0 | 0.0 | 0.00 | 0.00 | 0.00 | 95 | 1014.9 |
| 20260508092242 | 33 | 35 | 0.0 | 0.0 | 0.00 | 0.00 | 0.00 | 95 | 1014.7 |
| 20260508091740 | 33 | 35 | 0.0 | 0.0 | 0.00 | 0.00 | 0.00 | 95 | 1014.7 |
| 20260508091237 | 33 | 35 | 0.0 | 0.0 | 0.00 | 0.00 | 0.00 | 95 | 1014.8 |
| 20260508090734 | 34 | 35 | 0.0 | 0.0 | 0.00 | 0.00 | 0.00 | 95 | 1014.8 |
| 20260508090232 | 34 | 35 | 0.0 | 0.0 | 0.00 | 0.00 | 0.00 | 95 | 1014.6 |
| 20260508085727 | 34 | 35 | 0.0 | 0.0 | 0.00 | 0.00 | 0.00 | 95 | 1014.7 |
| 20260508085225 | 34 | 35 | 0.0 | 0.0 | 0.00 | 0.00 | 0.00 | 95 | 1014.8 |
| 20260508084720 | 34 | 35 | 0.0 | 0.0 | 0.00 | 0.00 | 0.00 | 94 | 1014.9 |
| 20260508084218 | 34 | 35 | 0.0 | 0.0 | 0.00 | 0.00 | 0.00 | 95 | 1014.8 |
| 20260508083716 | 34 | 35 | 0.0 | 0.0 | 0.00 | 0.00 | 0.00 | 94 | 1014.7 |
| 20260508083213 | 34 | 35 | 0.0 | 0.0 | 0.00 | 0.00 | 0.00 | 94 | 1014.6 |
| 20260508082708 | 34 | 35 | 0.0 | 0.0 | 0.00 | 0.00 | 0.00 | 94 | 1014.7 |
| 20260508082206 | 34 | 35 | 0.0 | 0.0 | 0.00 | 0.00 | 0.00 | 93 | 1014.8 |
| 20260508081703 | 35 | 35 | 0.0 | 0.0 | 0.00 | 0.00 | 0.00 | 93 | 1014.8 |
| 20260508081159 | 35 | 35 | 0.0 | 0.0 | 0.00 | 0.00 | 0.00 | 93 | 1014.8 |
| 20260508080657 | 35 | 35 | 0.0 | 0.0 | 0.00 | 0.00 | 0.00 | 93 | 1015.0 |
| 20260508080155 | 36 | 35 | 0.0 | 0.0 | 0.00 | 0.00 | 0.00 | 93 | 1014.9 |
| 20260508075651 | 35 | 35 | 0.0 | 0.0 | 0.00 | 0.00 | 0.00 | 92 | 1014.7 |
| 20260508075148 | 35 | 35 | 0.0 | 0.0 | 0.00 | 0.00 | 0.00 | 92 | 1014.9 |
| 20260508074646 | 35 | 35 | 0.0 | 0.0 | 0.00 | 0.00 | 0.00 | 91 | 1015.0 |
| 20260508074143 | 36 | 35 | 0.0 | 0.0 | 0.00 | 0.00 | 0.00 | 91 | 1014.9 |
| 20260508073640 | 36 | 35 | 0.0 | 0.0 | 0.00 | 0.00 | 0.00 | 91 | 1015.0 |
| 20260508073138 | 36 | 35 | 0.0 | 0.0 | 0.00 | 0.00 | 0.00 | 91 | 1014.8 |
| 20260508072633 | 36 | 35 | 0.0 | 0.0 | 0.00 | 0.00 | 0.00 | 90 | 1015.1 |
| 20260508072130 | 36 | 35 | 0.0 | 0.0 | 0.00 | 0.00 | 0.00 | 90 | 1015.2 |
| 20260508071628 | 36 | 35 | 0.0 | 0.0 | 0.00 | 0.00 | 0.00 | 90 | 1015.2 |
| 20260508071126 | 37 | 35 | 0.0 | 0.0 | 0.00 | 0.00 | 0.00 | 89 | 1015.1 |
| 20260508070623 | 37 | 35 | 0.0 | 0.0 | 0.00 | 0.00 | 0.00 | 89 | 1015.1 |
| 20260508070122 | 37 | 35 | 0.0 | 0.0 | 0.00 | 0.00 | 0.00 | 88 | 1015.2 |
| 20260508065618 | 37 | 35 | 0.0 | 0.0 | 0.00 | 0.00 | 0.00 | 87 | 1015.1 |
| 20260508065116 | 38 | 35 | 0.0 | 0.0 | 0.00 | 0.00 | 0.00 | 87 | 1015.1 |
| 20260508064614 | 38 | 35 | 0.0 | 0.0 | 0.00 | 0.00 | 0.00 | 87 | 1015.3 |
| 20260508064112 | 38 | 35 | 0.0 | 0.0 | 0.00 | 0.00 | 0.00 | 87 | 1015.3 |
| 20260508063609 | 38 | 35 | 0.0 | 0.0 | 0.00 | 0.00 | 0.00 | 87 | 1015.2 |
| 20260508063107 | 37 | 35 | 0.0 | 0.0 | 0.00 | 0.00 | 0.00 | 87 | 1015.1 |
| 20260508062604 | 37 | 36 | 0.0 | 0.0 | 0.00 | 0.00 | 0.00 | 87 | 1015.2 |
| 20260508062101 | 37 | 36 | 0.0 | 0.0 | 0.00 | 0.00 | 0.00 | 87 | 1015.2 |
| 20260508061558 | 37 | 36 | 0.0 | 0.0 | 0.00 | 0.00 | 0.00 | 87 | 1015.3 |
| 20260508061055 | 37 | 36 | 0.0 | 0.0 | 0.00 | 0.00 | 0.00 | 87 | 1015.1 |
| 20260508060552 | 37 | 35 | 0.0 | 0.0 | 0.00 | 0.00 | 0.00 | 86 | 1015.3 |
| 20260508060049 | 37 | 36 | 0.0 | 0.0 | 0.00 | 0.00 | 0.00 | 86 | 1015.3 |
| 20260508055545 | 37 | 36 | 0.0 | 0.0 | 0.00 | 0.00 | 0.00 | 86 | 1015.3 |
| 20260508055042 | 37 | 37 | 0.0 | 0.0 | 0.00 | 0.00 | 0.00 | 86 | 1015.3 |
| 20260508054538 | 37 | 37 | 0.0 | 0.0 | 0.00 | 0.00 | 0.00 | 85 | 1015.4 |
| 20260508054036 | 37 | 36 | 0.0 | 0.0 | 0.00 | 0.00 | 0.00 | 85 | 1015.5 |
| 20260508053532 | 37 | 36 | 0.0 | 0.0 | 0.00 | 0.00 | 0.00 | 85 | 1015.3 |
| 20260508053031 | 37 | 37 | 0.0 | 0.0 | 0.00 | 0.00 | 0.00 | 85 | 1015.5 |
| 20260508052528 | 37 | 36 | 0.0 | 0.0 | 0.00 | 0.00 | 0.00 | 84 | 1015.6 |
| 20260508052024 | 38 | 37 | 0.0 | 0.0 | 0.00 | 0.00 | 0.00 | 84 | 1015.7 |
| 20260508051521 | 38 | 39 | 0.0 | 0.0 | 0.00 | 0.00 | 0.00 | 84 | 1015.8 |
| 20260508051016 | 38 | 39 | 0.0 | 0.0 | 0.00 | 0.00 | 0.00 | 83 | 1016.0 |
| 20260508050513 | 38 | 39 | 0.0 | 0.0 | 0.00 | 0.00 | 0.00 | 83 | 1016.0 |
| 20260508050010 | 39 | 39 | 0.0 | 0.0 | 0.00 | 0.00 | 0.00 | 82 | 1015.8 |
| 20260508045506 | 39 | 39 | 0.0 | 0.0 | 0.00 | 0.00 | 0.00 | 81 | 1015.8 |
| 20260508045004 | 39 | 40 | 0.0 | 0.0 | 0.00 | 0.00 | 0.00 | 80 | 1015.7 |
| 20260508044501 | 39 | 40 | 0.0 | 0.0 | 0.00 | 0.00 | 0.00 | 79 | 1015.6 |
| 20260508043956 | 39 | 41 | 0.0 | 0.0 | 0.00 | 0.00 | 0.00 | 78 | 1015.4 |
| 20260508043454 | 40 | 41 | 0.0 | 0.0 | 0.00 | 0.00 | 0.00 | 77 | 1015.4 |
| 20260508042949 | 41 | 41 | 0.0 | 0.0 | 0.00 | 0.00 | 0.00 | 76 | 1015.5 |
| 20260508042448 | 41 | 40 | 0.0 | 0.0 | 0.00 | 0.00 | 0.00 | 75 | 1015.2 |
| 20260508041944 | 42 | 41 | 0.0 | 0.0 | 0.00 | 0.00 | 0.00 | 74 | 1015.5 |
| 20260508041441 | 42 | 36 | 0.0 | 0.0 | 0.00 | 0.00 | 0.00 | 71 | 1015.2 |
| 20260508040938 | 43 | 40 | 0.0 | 0.0 | 0.00 | 0.00 | 0.00 | 70 | 1015.3 |
| 20260508040435 | 42 | 39 | 1.0 | 2.0 | 0.00 | 0.00 | 0.00 | 71 | 1015.3 |
| 20260508035933 | 42 | 40 | 0.0 | 1.0 | 0.00 | 0.00 | 0.00 | 70 | 1015.2 |
| 20260508035429 | 42 | 36 | 0.0 | 0.0 | 0.00 | 0.00 | 0.00 | 72 | 1015.3 |
| 20260508034926 | 42 | 42 | 0.0 | 0.0 | 0.00 | 0.00 | 0.00 | 71 | 1015.2 |
| 20260508034424 | 42 | 38 | 0.0 | 0.0 | 0.00 | 0.00 | 0.00 | 71 | 1015.2 |
| 20260508033920 | 43 | 41 | 0.0 | 0.0 | 0.00 | 0.00 | 0.00 | 70 | 1015.2 |
| 20260508033418 | 43 | 50 | 1.0 | 1.0 | 0.00 | 0.00 | 0.00 | 70 | 1015.3 |
| 20260508032915 | 43 | 39 | 1.0 | 1.0 | 0.00 | 0.00 | 0.00 | 69 | 1015.3 |
| 20260508032413 | 43 | 43 | 0.0 | 0.0 | 0.00 | 0.00 | 0.00 | 69 | 1015.2 |
| 20260508031909 | 44 | 40 | 1.0 | 1.0 | 0.00 | 0.00 | 0.00 | 68 | 1015.1 |
| 20260508031407 | 44 | 39 | 1.0 | 1.0 | 0.00 | 0.00 | 0.00 | 68 | 1015.2 |
| 20260508030902 | 44 | 37 | 0.0 | 0.0 | 0.00 | 0.00 | 0.00 | 68 | 1015.1 |
| 20260508030400 | 43 | 32 | 0.0 | 1.0 | 0.00 | 0.00 | 0.00 | 68 | 1015.0 |
| 20260508025857 | 42 | 42 | 1.0 | 1.0 | 0.00 | 0.00 | 0.00 | 71 | 1015.1 |
| 20260508025353 | 42 | 38 | 0.0 | 0.0 | 0.00 | 0.00 | 0.00 | 74 | 1015.2 |
| 20260508024850 | 42 | 38 | 0.0 | 0.0 | 0.00 | 0.00 | 0.00 | 77 | 1015.3 |
| 20260508024347 | 42 | 38 | 0.0 | 0.0 | 0.00 | 0.00 | 0.00 | 76 | 1015.2 |
| 20260508023844 | 42 | 38 | 0.0 | 0.0 | 0.00 | 0.00 | 0.00 | 75 | 1015.2 |
| 20260508023341 | 42 | 38 | 0.0 | 0.0 | 0.00 | 0.00 | 0.00 | 75 | 1015.3 |
| 20260508022837 | 42 | 35 | 0.0 | 0.0 | 0.00 | 0.00 | 0.00 | 73 | 1015.2 |
| 20260508022333 | 43 | 35 | 0.0 | 0.0 | 0.00 | 0.00 | 0.00 | 73 | 1015.1 |
| 20260508021830 | 43 | 35 | 0.0 | 0.0 | 0.00 | 0.00 | 0.00 | 73 | 1015.1 |
| 20260508021326 | 43 | 35 | 0.0 | 0.0 | 0.00 | 0.00 | 0.00 | 72 | 1014.8 |
| 20260508020822 | 43 | 36 | 0.0 | 0.0 | 0.00 | 0.00 | 0.00 | 71 | 1015.1 |
| 20260508020320 | 44 | 36 | 0.0 | 0.0 | 0.00 | 0.00 | 0.00 | 71 | 1015.0 |
| 20260508015817 | 44 | 35 | 0.0 | 0.0 | 0.00 | 0.00 | 0.00 | 69 | 1014.9 |
| 20260508015315 | 45 | 36 | 0.0 | 1.0 | 0.00 | 0.00 | 0.00 | 69 | 1014.8 |
| 20260508014811 | 45 | 37 | 0.0 | 0.0 | 0.00 | 0.00 | 0.00 | 66 | 1014.8 |
| 20260508014308 | 45 | 37 | 0.0 | 0.0 | 0.00 | 0.00 | 0.00 | 65 | 1014.7 |
| 20260508013803 | 46 | 37 | 0.0 | 0.0 | 0.00 | 0.00 | 0.00 | 62 | 1014.6 |
| 20260508013300 | 46 | 37 | 0.0 | 0.0 | 0.00 | 0.00 | 0.00 | 60 | 1014.6 |
| 20260508012758 | 47 | 40 | 0.0 | 0.0 | 0.00 | 0.00 | 0.00 | 59 | 1014.5 |
| 20260508012255 | 46 | 39 | 0.0 | 1.0 | 0.00 | 0.00 | 0.00 | 60 | 1014.2 |
| 20260508011753 | 46 | 36 | 0.0 | 0.0 | 0.00 | 0.00 | 0.00 | 62 | 1014.4 |
| 20260508011250 | 46 | 36 | 0.0 | 0.0 | 0.00 | 0.00 | 0.00 | 62 | 1014.4 |
| 20260508010747 | 47 | 36 | 0.0 | 0.0 | 0.00 | 0.00 | 0.00 | 61 | 1014.3 |
| 20260508010245 | 47 | 37 | 0.0 | 0.0 | 0.00 | 0.00 | 0.00 | 60 | 1014.3 |
| 20260508005741 | 47 | 37 | 0.0 | 0.0 | 0.00 | 0.00 | 0.00 | 58 | 1014.2 |
| 20260508005238 | 48 | 37 | 0.0 | 0.0 | 0.00 | 0.00 | 0.00 | 59 | 1014.1 |
| 20260508004734 | 48 | 37 | 0.0 | 0.0 | 0.00 | 0.00 | 0.00 | 57 | 1013.9 |
| 20260508004230 | 49 | 37 | 0.0 | 0.0 | 0.00 | 0.00 | 0.00 | 56 | 1014.3 |
| 20260508003727 | 49 | 37 | 0.0 | 0.0 | 0.00 | 0.00 | 0.00 | 55 | 1014.2 |
| 20260508003224 | 50 | 39 | 0.0 | 0.0 | 0.00 | 0.00 | 0.00 | 55 | 1014.2 |
| 20260508002721 | 50 | 40 | 0.0 | 0.0 | 0.00 | 0.00 | 0.00 | 53 | 1014.1 |
| 20260508002218 | 51 | 39 | 0.0 | 0.0 | 0.00 | 0.00 | 0.00 | 51 | 1014.2 |
| 20260508001714 | 51 | 37 | 0.0 | 0.0 | 0.00 | 0.00 | 0.00 | 51 | 1014.2 |
| 20260508001209 | 51 | 42 | 0.0 | 0.0 | 0.00 | 0.00 | 0.00 | 49 | 1014.2 |
| 20260508000706 | 52 | 31 | 0.0 | 1.0 | 0.00 | 0.00 | 0.00 | 49 | 1014.1 |
| 20260508000205 | 52 | 39 | 0.0 | 0.0 | 0.00 | 0.00 | 0.00 | 49 | 1014.0 |
| 20260507235659 | 52 | 35 | 0.0 | 0.0 | 0.00 | 0.00 | 0.00 | 48 | 1014.0 |
| 20260507235157 | 52 | 23 | 1.0 | 1.0 | 0.00 | 0.00 | 0.00 | 48 | 1014.0 |
| 20260507234654 | 52 | 42 | 1.0 | 2.0 | 0.00 | 0.00 | 0.00 | 48 | 1014.1 |
| 20260507234150 | 52 | 34 | 0.0 | 1.0 | 0.00 | 0.00 | 0.00 | 49 | 1014.1 |
| 20260507233647 | 52 | 34 | 0.0 | 0.0 | 0.00 | 0.00 | 0.00 | 48 | 1014.3 |
| 20260507233146 | 52 | 22 | 0.0 | 1.0 | 0.00 | 0.00 | 0.00 | 48 | 1014.2 |
| 20260507232642 | 51 | 39 | 0.0 | 1.0 | 0.00 | 0.00 | 0.00 | 48 | 1014.4 |
| 20260507232139 | 52 | 336 | 1.0 | 1.0 | 0.00 | 0.00 | 0.00 | 47 | 1014.5 |
| 20260507231636 | 52 | 16 | 1.0 | 1.0 | 0.00 | 0.00 | 0.00 | 47 | 1014.3 |
| 20260507231133 | 52 | 316 | 1.0 | 2.0 | 0.00 | 0.00 | 0.00 | 47 | 1014.4 |
| 20260507230629 | 52 | 11 | 1.0 | 1.0 | 0.00 | 0.00 | 0.00 | 46 | 1014.5 |
| 20260507230127 | 53 | 2 | 1.0 | 2.0 | 0.00 | 0.00 | 0.00 | 46 | 1014.6 |
| 20260507225626 | 52 | 302 | 2.0 | 2.0 | 0.00 | 0.00 | 0.00 | 46 | 1014.7 |
| 20260507225123 | 53 | 338 | 2.0 | 2.0 | 0.00 | 0.00 | 0.00 | 46 | 1014.7 |
| 20260507224618 | 53 | 19 | 1.0 | 1.0 | 0.00 | 0.00 | 0.00 | 47 | 1014.7 |
| 20260507224116 | 52 | 34 | 0.0 | 1.0 | 0.00 | 0.00 | 0.00 | 48 | 1014.7 |
| 20260507223612 | 52 | 25 | 1.0 | 1.0 | 0.00 | 0.00 | 0.00 | 46 | 1014.6 |
| 20260507223108 | 52 | 11 | 1.0 | 1.0 | 0.00 | 0.00 | 0.00 | 46 | 1014.8 |
| 20260507222606 | 53 | 7 | 1.0 | 1.0 | 0.00 | 0.00 | 0.00 | 45 | 1014.8 |
| 20260507222102 | 53 | 20 | 1.0 | 1.0 | 0.00 | 0.00 | 0.00 | 44 | 1014.8 |
| 20260507221558 | 55 | 4 | 1.0 | 1.0 | 0.00 | 0.00 | 0.00 | 43 | 1014.7 |
| 20260507221055 | 54 | 42 | 0.0 | 1.0 | 0.00 | 0.00 | 0.00 | 44 | 1014.7 |
| 20260507220552 | 54 | 56 | 1.0 | 1.0 | 0.00 | 0.00 | 0.00 | 43 | 1014.8 |
| 20260507220050 | 54 | 17 | 1.0 | 1.0 | 0.00 | 0.00 | 0.00 | 43 | 1014.9 |
| 20260507215546 | 54 | 50 | 1.0 | 1.0 | 0.00 | 0.00 | 0.00 | 43 | 1014.8 |
| 20260507215044 | 53 | 323 | 1.0 | 1.0 | 0.00 | 0.00 | 0.00 | 43 | 1015.0 |
| 20260507214541 | 54 | 228 | 3.0 | 5.0 | 0.00 | 0.00 | 0.00 | 43 | 1014.9 |
| 20260507214037 | 53 | 324 | 2.0 | 2.0 | 0.00 | 0.00 | 0.00 | 44 | 1015.0 |
| 20260507213533 | 53 | 268 | 2.0 | 2.0 | 0.00 | 0.00 | 0.00 | 43 | 1014.9 |
| 20260507213030 | 53 | 259 | 2.0 | 2.0 | 0.00 | 0.00 | 0.00 | 44 | 1014.9 |
| 20260507212526 | 54 | 12 | 1.0 | 1.0 | 0.00 | 0.00 | 0.00 | 44 | 1014.9 |
| 20260507212023 | 54 | 301 | 3.0 | 5.0 | 0.00 | 0.00 | 0.00 | 42 | 1015.0 |
| 20260507211520 | 55 | 270 | 2.0 | 2.0 | 0.00 | 0.00 | 0.00 | 41 | 1014.9 |
| 20260507211016 | 54 | 21 | 1.0 | 1.0 | 0.00 | 0.00 | 0.00 | 43 | 1015.0 |
| 20260507210513 | 53 | 7 | 1.0 | 1.0 | 0.00 | 0.00 | 0.00 | 43 | 1015.0 |
| 20260507210010 | 54 | 286 | 3.0 | 3.0 | 0.00 | 0.00 | 0.00 | 43 | 1014.8 |
| 20260507205507 | 53 | 302 | 1.0 | 1.0 | 0.00 | 0.00 | 0.00 | 43 | 1015.1 |
| 20260507205003 | 52 | 223 | 2.0 | 3.0 | 0.00 | 0.00 | 0.00 | 43 | 1015.1 |
| 20260507204459 | 54 | 256 | 2.0 | 2.0 | 0.00 | 0.00 | 0.00 | 42 | 1015.3 |
| 20260507203957 | 55 | 245 | 4.0 | 6.0 | 0.00 | 0.00 | 0.00 | 42 | 1015.4 |
| 20260507203455 | 54 | 290 | 2.0 | 2.0 | 0.00 | 0.00 | 0.00 | 41 | 1015.5 |
| 20260507202951 | 54 | 313 | 3.0 | 3.0 | 0.00 | 0.00 | 0.00 | 42 | 1015.6 |
| 20260507202447 | 54 | 265 | 2.0 | 2.0 | 0.00 | 0.00 | 0.00 | 42 | 1015.5 |
| 20260507201944 | 53 | 347 | 2.0 | 2.0 | 0.00 | 0.00 | 0.00 | 43 | 1015.8 |
| 20260507201439 | 53 | 279 | 2.0 | 2.0 | 0.00 | 0.00 | 0.00 | 42 | 1015.7 |
| 20260507200936 | 54 | 289 | 4.0 | 5.0 | 0.00 | 0.00 | 0.00 | 41 | 1016.0 |
| 20260507200431 | 54 | 336 | 1.0 | 1.0 | 0.00 | 0.00 | 0.00 | 43 | 1015.8 |
| 20260507195927 | 53 | 191 | 7.0 | 10.0 | 0.00 | 0.00 | 0.00 | 41 | 1015.8 |
| 20260507195425 | 54 | 248 | 5.0 | 6.0 | 0.00 | 0.00 | 0.00 | 41 | 1016.1 |
| 20260507194922 | 54 | 335 | 3.0 | 3.0 | 0.00 | 0.00 | 0.00 | 42 | 1016.1 |
| 20260507194419 | 53 | 347 | 2.0 | 2.0 | 0.00 | 0.00 | 0.00 | 42 | 1016.1 |
| 20260507193915 | 53 | 0 | 4.0 | 5.0 | 0.00 | 0.00 | 0.00 | 42 | 1016.2 |
| 20260507193413 | 53 | 298 | 4.0 | 7.0 | 0.00 | 0.00 | 0.00 | 42 | 1016.1 |
| 20260507192909 | 54 | 283 | 3.0 | 3.0 | 0.00 | 0.00 | 0.00 | 41 | 1016.1 |
| 20260507192405 | 53 | 289 | 3.0 | 3.0 | 0.00 | 0.00 | 0.00 | 41 | 1016.2 |
| 20260507191902 | 55 | 300 | 4.0 | 5.0 | 0.00 | 0.00 | 0.00 | 42 | 1016.4 |
| 20260507191358 | 54 | 263 | 4.0 | 5.0 | 0.00 | 0.00 | 0.00 | 42 | 1016.3 |
| 20260507190854 | 53 | 328 | 1.0 | 1.0 | 0.00 | 0.00 | 0.00 | 41 | 1016.4 |
| 20260507190353 | 52 | 227 | 2.0 | 2.0 | 0.00 | 0.00 | 0.00 | 43 | 1016.4 |
| 20260507185851 | 52 | 253 | 4.0 | 5.0 | 0.00 | 0.00 | 0.00 | 43 | 1016.4 |
| 20260507185348 | 52 | 302 | 3.0 | 3.0 | 0.00 | 0.00 | 0.00 | 42 | 1016.3 |
| 20260507184845 | 52 | 216 | 9.0 | 10.0 | 0.00 | 0.00 | 0.00 | 42 | 1016.3 |
| 20260507184343 | 53 | 276 | 2.0 | 2.0 | 0.00 | 0.00 | 0.00 | 42 | 1016.4 |
| 20260507183839 | 52 | 209 | 5.0 | 6.0 | 0.00 | 0.00 | 0.00 | 42 | 1016.3 |
| 20260507183336 | 52 | 242 | 2.0 | 2.0 | 0.00 | 0.00 | 0.00 | 43 | 1016.3 |
| 20260507182834 | 53 | 268 | 5.0 | 7.0 | 0.00 | 0.00 | 0.00 | 42 | 1016.5 |
| 20260507182330 | 53 | 252 | 3.0 | 5.0 | 0.00 | 0.00 | 0.00 | 42 | 1016.4 |
| 20260507181826 | 53 | 242 | 6.0 | 7.0 | 0.00 | 0.00 | 0.00 | 42 | 1016.5 |
| 20260507181322 | 53 | 238 | 4.0 | 6.0 | 0.00 | 0.00 | 0.00 | 42 | 1016.5 |
| 20260507180819 | 52 | 32 | 2.0 | 3.0 | 0.00 | 0.00 | 0.00 | 44 | 1016.6 |
| 20260507180316 | 50 | 279 | 3.0 | 3.0 | 0.00 | 0.00 | 0.00 | 45 | 1016.6 |
| 20260507175811 | 50 | 293 | 3.0 | 3.0 | 0.00 | 0.00 | 0.00 | 45 | 1016.6 |
| 20260507175309 | 49 | 307 | 2.0 | 2.0 | 0.00 | 0.00 | 0.00 | 46 | 1016.4 |
| 20260507174806 | 50 | 268 | 4.0 | 6.0 | 0.00 | 0.00 | 0.00 | 45 | 1016.6 |
| 20260507174304 | 49 | 254 | 5.0 | 7.0 | 0.00 | 0.00 | 0.00 | 46 | 1016.8 |
| 20260507173801 | 50 | 332 | 3.0 | 3.0 | 0.00 | 0.00 | 0.00 | 46 | 1016.6 |
| 20260507173258 | 50 | 40 | 2.0 | 3.0 | 0.00 | 0.00 | 0.00 | 45 | 1016.7 |
| 20260507172754 | 50 | 249 | 3.0 | 5.0 | 0.00 | 0.00 | 0.00 | 44 | 1016.6 |
| 20260507172251 | 51 | 301 | 4.0 | 5.0 | 0.00 | 0.00 | 0.00 | 44 | 1016.8 |
| 20260507171747 | 51 | 275 | 3.0 | 5.0 | 0.00 | 0.00 | 0.00 | 46 | 1016.9 |
| 20260507171244 | 50 | 279 | 8.0 | 9.0 | 0.00 | 0.00 | 0.00 | 45 | 1017.1 |
| 20260507170741 | 49 | 33 | 3.0 | 5.0 | 0.00 | 0.00 | 0.00 | 46 | 1017.2 |
| 20260507170237 | 50 | 238 | 5.0 | 7.0 | 0.00 | 0.00 | 0.00 | 45 | 1017.3 |
| 20260507165733 | 49 | 251 | 3.0 | 3.0 | 0.00 | 0.00 | 0.00 | 46 | 1017.4 |
| 20260507165229 | 49 | 207 | 3.0 | 7.0 | 0.00 | 0.00 | 0.00 | 45 | 1017.5 |
| 20260507164726 | 50 | 245 | 7.0 | 8.0 | 0.00 | 0.00 | 0.00 | 46 | 1017.4 |
| 20260507164223 | 50 | 233 | 4.0 | 7.0 | 0.00 | 0.00 | 0.00 | 44 | 1017.5 |
| 20260507163720 | 50 | 298 | 3.0 | 3.0 | 0.00 | 0.00 | 0.00 | 47 | 1017.5 |
| 20260507163218 | 49 | 306 | 4.0 | 5.0 | 0.00 | 0.00 | 0.00 | 48 | 1017.6 |
| 20260507162714 | 50 | 279 | 3.0 | 3.0 | 0.00 | 0.00 | 0.00 | 47 | 1017.6 |
| 20260507162210 | 50 | 226 | 9.0 | 13.0 | 0.00 | 0.00 | 0.00 | 47 | 1017.7 |
| 20260507161706 | 50 | 197 | 4.0 | 6.0 | 0.00 | 0.00 | 0.00 | 47 | 1017.6 |
| 20260507161203 | 49 | 3 | 2.0 | 2.0 | 0.00 | 0.00 | 0.00 | 49 | 1017.7 |
| 20260507160659 | 50 | 266 | 3.0 | 6.0 | 0.00 | 0.00 | 0.00 | 48 | 1017.6 |
| 20260507160156 | 50 | 238 | 5.0 | 7.0 | 0.00 | 0.00 | 0.00 | 48 | 1017.8 |
| 20260507155651 | 50 | 256 | 5.0 | 6.0 | 0.00 | 0.00 | 0.00 | 48 | 1017.9 |
| 20260507155143 | 50 | 287 | 4.0 | 5.0 | 0.00 | 0.00 | 0.00 | 49 | 1017.7 |
| 20260507154639 | 48 | 301 | 2.0 | 2.0 | 0.00 | 0.00 | 0.00 | 50 | 1017.8 |
| 20260507154137 | 48 | 255 | 6.0 | 7.0 | 0.00 | 0.00 | 0.00 | 50 | 1017.8 |
| 20260507153633 | 49 | 268 | 7.0 | 11.0 | 0.00 | 0.00 | 0.00 | 49 | 1017.8 |
| 20260507153130 | 49 | 250 | 6.0 | 8.0 | 0.00 | 0.00 | 0.00 | 49 | 1018.0 |
| 20260507152626 | 49 | 254 | 6.0 | 8.0 | 0.00 | 0.00 | 0.00 | 49 | 1017.9 |
| 20260507152122 | 49 | 292 | 4.0 | 6.0 | 0.00 | 0.00 | 0.00 | 50 | 1017.7 |
| 20260507151618 | 49 | 246 | 3.0 | 3.0 | 0.00 | 0.00 | 0.00 | 50 | 1017.7 |
| 20260507151115 | 48 | 233 | 5.0 | 7.0 | 0.00 | 0.00 | 0.00 | 49 | 1017.8 |
| 20260507150612 | 49 | 297 | 5.0 | 7.0 | 0.00 | 0.00 | 0.00 | 49 | 1017.8 |
| 20260507150109 | 49 | 256 | 3.0 | 3.0 | 0.00 | 0.00 | 0.00 | 50 | 1017.7 |
| 20260507145603 | 49 | 233 | 6.0 | 7.0 | 0.00 | 0.00 | 0.00 | 50 | 1017.6 |
| 20260507145056 | 48 | 211 | 6.0 | 8.0 | 0.00 | 0.00 | 0.00 | 50 | 1017.6 |
| 20260507144552 | 48 | 295 | 4.0 | 5.0 | 0.00 | 0.00 | 0.00 | 50 | 1017.6 |
| 20260507144051 | 48 | 270 | 5.0 | 5.0 | 0.00 | 0.00 | 0.00 | 50 | 1017.6 |
| 20260507143547 | 48 | 319 | 3.0 | 5.0 | 0.00 | 0.00 | 0.00 | 50 | 1017.6 |
| 20260507143044 | 48 | 236 | 4.0 | 6.0 | 0.00 | 0.00 | 0.00 | 51 | 1017.8 |
| 20260507142539 | 48 | 274 | 4.0 | 7.0 | 0.00 | 0.00 | 0.00 | 51 | 1017.6 |
| 20260507142036 | 47 | 318 | 2.0 | 2.0 | 0.00 | 0.00 | 0.00 | 54 | 1017.6 |
| 20260507141532 | 47 | 330 | 2.0 | 2.0 | 0.00 | 0.00 | 0.00 | 52 | 1017.7 |
| 20260507141029 | 47 | 264 | 5.0 | 6.0 | 0.00 | 0.00 | 0.00 | 53 | 1017.8 |
| 20260507140526 | 48 | 224 | 7.0 | 9.0 | 0.00 | 0.00 | 0.00 | 53 | 1017.9 |
| 20260507140023 | 47 | 300 | 2.0 | 2.0 | 0.00 | 0.00 | 0.00 | 55 | 1017.7 |
| 20260507135520 | 47 | 245 | 5.0 | 6.0 | 0.00 | 0.00 | 0.00 | 56 | 1017.9 |
| 20260507135017 | 47 | 226 | 5.0 | 7.0 | 0.00 | 0.00 | 0.00 | 54 | 1017.9 |
| 20260507134514 | 47 | 19 | 1.0 | 2.0 | 0.00 | 0.00 | 0.00 | 58 | 1017.9 |
| 20260507134009 | 46 | 245 | 3.0 | 5.0 | 0.00 | 0.00 | 0.00 | 59 | 1017.7 |
| 20260507133506 | 46 | 358 | 3.0 | 3.0 | 0.00 | 0.00 | 0.00 | 59 | 1017.8 |
| 20260507133004 | 45 | 304 | 3.0 | 3.0 | 0.00 | 0.00 | 0.00 | 60 | 1017.7 |
| 20260507132500 | 46 | 223 | 4.0 | 5.0 | 0.00 | 0.00 | 0.00 | 62 | 1017.6 |
| 20260507131956 | 46 | 249 | 3.0 | 3.0 | 0.00 | 0.00 | 0.00 | 66 | 1017.7 |
| 20260507131454 | 45 | 232 | 4.0 | 5.0 | 0.00 | 0.00 | 0.00 | 67 | 1017.4 |
| 20260507130950 | 45 | 1 | 1.0 | 2.0 | 0.00 | 0.00 | 0.00 | 69 | 1017.5 |
| 20260507130447 | 45 | 352 | 2.0 | 2.0 | 0.00 | 0.00 | 0.00 | 69 | 1017.5 |
| 20260507125946 | 44 | 278 | 3.0 | 3.0 | 0.00 | 0.00 | 0.00 | 71 | 1017.6 |
| 20260507125444 | 44 | 319 | 1.0 | 2.0 | 0.00 | 0.00 | 0.00 | 72 | 1017.5 |
| 20260507124941 | 44 | 293 | 2.0 | 2.0 | 0.00 | 0.00 | 0.00 | 72 | 1017.4 |
| 20260507124437 | 44 | 290 | 2.0 | 2.0 | 0.00 | 0.00 | 0.00 | 74 | 1017.5 |
| 20260507123936 | 43 | 197 | 3.0 | 5.0 | 0.00 | 0.00 | 0.00 | 74 | 1017.4 |
| 20260507123433 | 43 | 333 | 2.0 | 2.0 | 0.00 | 0.00 | 0.00 | 75 | 1017.4 |
| 20260507122929 | 42 | 306 | 2.0 | 2.0 | 0.00 | 0.00 | 0.00 | 76 | 1017.3 |
| 20260507122424 | 42 | 316 | 2.0 | 2.0 | 0.00 | 0.00 | 0.00 | 77 | 1017.3 |
| 20260507121921 | 42 | 241 | 4.0 | 5.0 | 0.00 | 0.00 | 0.00 | 76 | 1017.4 |
| 20260507121416 | 42 | 322 | 1.0 | 2.0 | 0.00 | 0.00 | 0.00 | 78 | 1017.3 |
| 20260507120913 | 42 | 218 | 3.0 | 5.0 | 0.00 | 0.00 | 0.00 | 77 | 1017.2 |
| 20260507120409 | 42 | 349 | 1.0 | 1.0 | 0.00 | 0.00 | 0.00 | 77 | 1017.3 |
| 20260507115906 | 41 | 351 | 1.0 | 1.0 | 0.00 | 0.00 | 0.00 | 77 | 1017.3 |
| 20260507115402 | 41 | 2 | 1.0 | 1.0 | 0.00 | 0.00 | 0.00 | 78 | 1017.5 |
| 20260507114857 | 41 | 333 | 2.0 | 2.0 | 0.00 | 0.00 | 0.00 | 77 | 1017.3 |
| 20260507114355 | 41 | 338 | 1.0 | 1.0 | 0.00 | 0.00 | 0.00 | 77 | 1017.1 |
| 20260507113852 | 41 | 341 | 1.0 | 1.0 | 0.00 | 0.00 | 0.00 | 77 | 1017.3 |
| 20260507113349 | 41 | 212 | 1.0 | 2.0 | 0.00 | 0.00 | 0.00 | 77 | 1017.0 |
| 20260507112846 | 40 | 336 | 1.0 | 1.0 | 0.00 | 0.00 | 0.00 | 77 | 1016.8 |
| 20260507112343 | 40 | 221 | 2.0 | 2.0 | 0.00 | 0.00 | 0.00 | 77 | 1017.0 |
| 20260507111841 | 39 | 256 | 2.0 | 2.0 | 0.00 | 0.00 | 0.00 | 78 | 1017.0 |
| 20260507111338 | 39 | 227 | 2.0 | 2.0 | 0.00 | 0.00 | 0.00 | 78 | 1017.0 |
| 20260507110834 | 38 | 353 | 1.0 | 1.0 | 0.00 | 0.00 | 0.00 | 79 | 1016.8 |
| 20260507110330 | 38 | 333 | 1.0 | 2.0 | 0.00 | 0.00 | 0.00 | 79 | 1016.8 |
| 20260507105827 | 38 | 22 | 1.0 | 1.0 | 0.00 | 0.00 | 0.00 | 80 | 1016.7 |
| 20260507105324 | 37 | 315 | 1.0 | 2.0 | 0.00 | 0.00 | 0.00 | 80 | 1016.7 |